Flag for U.S.A. Weather past 2 weeks in Fort Collins, Colorado, U.S.A.

21 °F


Feels Like: 14 °F
Forecast: 13 / 28 °F
Wind: 6 mph from East

Location: Fort Collins-Loveland Municipal Airport

Current Time: Nov 28, 2015 at 5:55:00 PM

Latest Report: Nov 28, 2015 at 5:15 PM

Visibility: 10 mi

Pressure: 30.17 "Hg (24.83 "Hg at 1522m altitude)

Humidity: 80%

Dew point: 16 °F

Location of Fort CollinsLocation

Historic Weather in Fort Collins — Graph


Fort Collins temperature yesterday

Maximum temperature yesterday: 18 °F (at 11:35 AM)
Minimum temperature yesterday: 9 °F (at 5:35 AM)
Average temperature yesterday: 15 °F

Past Weeks' High & Low Weather Summary

High63 °F (Nov 14, 1:55 PM)93% (Nov 21, 7:55 AM)30.44 "Hg (Nov 21, 7:55 AM)
Low9 °F (Nov 27, 5:35 AM)20% (Nov 24, 1:55 PM)29.43 "Hg (Nov 18, 4:35 AM)
Average33 °F62%29.98 "Hg
* Reported Nov 13 4:35 PM — Nov 28 4:15 PM, Fort Collins, Weather by CustomWeather, © 2015

Note: Actual official high and low records may vary slightly from our data, if they occured in-between our weather recording intervals... More about our weather records


Fort Collins weather history for previous 24 hours

Time TempWeatherWind HumidityBarometerVisibility
4:15 PM
Sat, Nov 28
21 °FOvercast.5 mph74%30.16 "Hg10 mi
3:55 PM21 °FOvercast.6 mph80%30.16 "Hg10 mi
3:15 PM21 °FOvercast.No wind80%30.16 "Hg10 mi
2:55 PM21 °FOvercast.5 mph80%30.16 "Hg10 mi
2:35 PM21 °FOvercast.6 mph80%30.16 "Hg10 mi
1:35 PM25 °FOvercast.7 mph69%30.14 "Hg10 mi
1:15 PM27 °FOvercast.5 mph74%30.15 "Hg10 mi
12:55 PM23 °FOvercast.3 mph74%30.16 "Hg10 mi
12:35 PM21 °FOvercast.No wind80%30.17 "Hg10 mi
12:15 PM21 °FOvercast.6 mph80%30.18 "Hg10 mi
11:55 AM21 °FOvercast.5 mph74%30.18 "Hg10 mi
11:35 AM23 °FOvercast.No wind74%30.18 "Hg10 mi
11:15 AM25 °FOvercast.No wind74%30.19 "Hg10 mi
10:55 AM23 °FOvercast.3 mph80%30.19 "Hg10 mi
10:35 AM23 °FScattered clouds.6 mph80%30.20 "Hg10 mi
10:15 AM23 °FPassing clouds.5 mph80%30.20 "Hg10 mi
9:55 AM21 °FPassing clouds.5 mph86%30.19 "Hg10 mi
9:35 AM21 °FPartly sunny.5 mph86%30.19 "Hg7 mi
9:15 AM21 °FPartly sunny.6 mph86%30.19 "Hg8 mi
8:55 AM19 °FOvercast.6 mph93%30.19 "Hg2 mi
8:35 AM19 °FOvercast.7 mph93%30.19 "Hg2 mi
8:15 AM19 °FOvercast.6 mph86%30.19 "Hg2 mi
7:55 AM19 °FLow clouds.3 mph86%30.18 "Hg1 mi
7:35 AM19 °FLow clouds.5 mph93%30.18 "Hg3 mi
7:15 AM19 °FLow clouds.3 mph86%30.18 "Hg4 mi
6:55 AM19 °FLow clouds.3 mph86%30.16 "Hg4 mi
6:35 AM19 °FLow clouds.6 mph86%30.16 "Hg5 mi
6:15 AM19 °FLow clouds.6 mph86%30.16 "Hg6 mi
5:55 AM19 °FLow clouds.7 mph86%30.15 "Hg5 mi
5:35 AM19 °FOvercast.6 mph86%30.16 "Hg5 mi
5:15 AM19 °FLow clouds.7 mph86%30.16 "Hg5 mi
4:55 AM19 °FLow clouds.6 mph86%30.16 "Hg5 mi
4:35 AM19 °FLow clouds.6 mph86%30.17 "Hg6 mi
4:15 AM18 °FLow clouds.5 mph93%30.17 "Hg8 mi
3:55 AM18 °FLow clouds.No wind93%30.18 "Hg5 mi
3:35 AM18 °FLow clouds.No wind86%30.18 "Hg10 mi
3:15 AM18 °FLow clouds.No wind86%30.18 "Hg10 mi
2:55 AM18 °FLow clouds.No wind93%30.19 "Hg10 mi
2:35 AM18 °FLow clouds.No wind93%30.21 "Hg10 mi
2:15 AM18 °FLow clouds.No wind86%30.21 "Hg10 mi
1:55 AM18 °FLow clouds.No wind93%30.21 "Hg10 mi
1:35 AM18 °FLow clouds.No wind86%30.21 "Hg10 mi
1:15 AM18 °FOvercast.6 mph86%30.22 "Hg10 mi
12:55 AM18 °FOvercast.8 mph86%30.23 "Hg10 mi
11:35 PM
Fri, Nov 27
18 °FMostly cloudy.6 mph79%30.26 "Hg4 mi
11:15 PM18 °FOvercast.6 mph79%30.27 "Hg4 mi
10:55 PM18 °FOvercast.6 mph79%30.28 "Hg5 mi
10:35 PM18 °FPassing clouds.8 mph79%30.29 "Hg10 mi
9:55 PM18 °FClear.7 mph79%30.29 "Hg7 mi
9:35 PM18 °FPassing clouds.5 mph79%30.30 "Hg5 mi
9:15 PM18 °FMostly cloudy.5 mph79%30.30 "Hg3 mi
8:55 PM18 °FOvercast.6 mph79%30.31 "Hg6 mi
8:35 PM18 °FPassing clouds.7 mph79%30.31 "Hg9 mi
8:15 PM18 °FPassing clouds.7 mph79%30.31 "Hg8 mi
7:55 PM18 °FPassing clouds.7 mph79%30.31 "Hg10 mi
7:15 PM18 °FPassing clouds.7 mph79%30.31 "Hg10 mi
6:55 PM18 °FPassing clouds.7 mph79%30.31 "Hg10 mi
6:35 PM16 °FPassing clouds.8 mph86%30.32 "Hg10 mi
6:15 PM18 °FClear.9 mph79%30.32 "Hg9 mi
5:55 PM18 °FPassing clouds.10 mph79%30.33 "Hg10 mi
5:35 PM18 °FPassing clouds.10 mph79%30.33 "Hg10 mi
Weather by CustomWeather, © 2015

See weather overviewHow to use our weather pages